Location: Austin
(30.3000°N, 97.7500°W)
Time: 11:27:20
(UTC-05:00)

SJ-6B - Pass Details

Date: 26 May 2023
Orbit: 502 x 565 km, 97.5° (Epoch: 30 May)

Event Time Altitude Azimuth Distance (km) Brightness Sun altitude
Exits shadow 21:39:08 - 189° (S) 2,336 5.8 -14.6°
Reaches altitude 10° 21:40:33 10° 196° (SSW) 1,784 5.2 -14.9°
Maximum altitude 21:44:04 34° 262° (W) 912 4.4 -15.5°
Drops below altitude 10° 21:47:41 10° 328° (NNW) 1,827 6.6 -16.1°
Sets 21:49:59 0° 338° (NNW) 2,734 7.4 -16.5°
